sat.trackr.live / text

‹ back to catalog

ONEWEB-0283

NORAD 49001 · 2021-060AL

PAYLOAD ACTIVE UNKNOWN

§ Identity

Operator
Country
UK
Launch date
2021-07-01
Launch site
VOSTO
Launch vehicle
Mass (kg)
RCS (m²)

Purposes: comms

External: N2YO · Heavens-Above · Gunter

§ Orbital elements

Epoch: 2026-09-20T03:46:52.176576Z

Period
109.37 min
Inclination
87.9156°
Eccentricity
0.0002065
Mean motion
13.16593769 rev/d
Perigee alt
1,196.2 km
Apogee alt
1,199.3 km
Semi-major
7,575.9 km
B*
9.4875e-5
RAAN
209.9236°
Arg perigee
72.8015°
Mean anomaly
287.3342°
Rev number
25,211

§ Raw data

ONEWEB-02831 49001U 21060AL  26263.15754834  .00000049  00000+0  94875-4 0  99982 49001  87.9156 209.9236 0002065  72.8015 287.3342 13.16593769252119

JSON: /api/v1/satellites/49001 · /tle

For live sub-satellite position, see the globe view (requires WebGL).

§ Visibility from observer

Set your observer location to see the next 7 days of passes ≥ 10°. The values pass through the URL so the page stays shareable.

No JS? Fill the form by hand. The geolocation button needs JavaScript.